Theta_e
317 319 321 323 326 328 327 327 326 323 326 324 318 321 318 317 321 318 318 319 317 316 317 317 317 317 320 320 318 317 317 319 320 328 330 320 321 321 322 327 327 329 329 327 326 323 320 316 319 327 330 333 334 334 335 335 335 334 332 330 329 328 327 327 328 328 328 329 330 331 332 333 333 333 333 332 331 331 330 330 329 328 327 325 324 323 323 323 322 320 319 319 319 319 319 319 320
316 317 322 325 327 329 327 327 333 330 327 321 317 320 316 317 320 317 320 319 317 315 316 316 315 316 316 316 316 318 318 319 318 321 320 318 319 319 322 326 326 327 327 329 328 323 319 314 314 321 324 327 331 333 334 334 334 334 334 333 333 331 330 329 328 329 329 328 327 328 329 330 331 331 332 331 331 331 330 330 330 330 329 328 326 324 324 324 324 324 322 321 320 319 319 319 320
315 319 321 324 327 327 328 327 331 331 329 323 320 322 316 317 320 319 319 316 315 314 315 314 314 314 313 316 316 318 318 317 318 319 319 319 316 316 320 322 325 326 325 325 324 321 318 313 311 315 319 322 325 329 331 332 332 332 333 332 333 333 333 332 331 331 330 329 328 329 329 329 330 330 331 331 331 331 331 330 330 330 330 330 329 327 326 325 324 324 324 324 323 321 319 318 319
316 322 322 324 326 326 335 336 332 331 328 324 321 322 321 320 321 319 316 314 315 314 315 314 314 313 313 315 314 316 316 316 318 319 317 316 315 315 316 318 320 321 321 319 317 315 314 313 311 311 314 318 321 324 326 328 330 331 331 332 332 332 333 333 332 332 331 331 331 331 331 330 331 331 331 331 331 331 331 331 330 330 330 330 330 329 328 328 327 326 325 325 325 324 321 318 317
318 322 321 324 326 324 333 331 330 332 324 324 321 320 327 324 320 317 314 313 314 315 315 314 313 312 312 312 312 314 314 314 316 317 313 312 313 313 314 315 316 316 316 315 314 313 313 313 313 312 312 313 316 319 321 322 324 325 326 328 329 330 331 331 331 332 333 333 332 331 330 331 331 331 332 331 331 331 331 330 329 329 330 330 330 329 329 328 328 328 327 326 326 328 328 325 322
320 322 322 323 323 320 325 322 323 327 321 325 323 318 325 321 316 314 313 314 314 315 314 313 313 312 310 308 309 311 313 312 312 313 310 309 311 312 313 313 314 314 313 314 314 313 314 314 313 314 313 313 313 314 316 317 318 318 319 320 322 325 327 329 331 332 333 333 333 332 331 331 331 331 331 331 331 331 331 330 330 329 329 329 329 329 329 329 328 329 328 327 326 328 330 331 330
320 322 322 322 321 319 326 325 322 323 317 318 322 319 318 314 313 313 313 315 314 314 314 313 312 311 309 309 308 308 311 311 309 309 308 308 309 309 310 311 312 312 311 311 310 311 311 312 312 312 313 313 313 313 313 313 314 314 315 316 317 319 322 325 327 329 330 331 331 331 331 331 331 331 330 331 332 331 331 330 330 330 329 328 328 328 329 330 329 329 329 329 328 328 329 331 332
320 321 320 324 329 327 329 325 321 324 317 312 316 317 314 313 313 313 313 314 314 313 313 312 311 312 309 309 307 306 308 309 307 306 306 306 306 307 307 308 309 308 308 307 306 307 307 308 309 309 309 310 310 311 311 312 312 313 313 314 315 316 317 320 322 325 328 330 330 330 330 329 329 329 330 331 331 331 331 330 331 330 329 329 328 327 327 329 330 330 329 329 329 328 328 330 331
320 321 319 325 331 330 327 320 317 319 317 315 314 314 313 313 313 313 312 312 313 312 311 310 311 312 308 307 306 305 306 306 305 304 305 305 305 305 306 306 306 305 305 305 305 305 305 305 305 306 306 307 307 307 308 308 309 310 311 312 313 313 315 316 318 321 324 326 327 328 327 327 328 328 328 328 328 329 330 330 331 330 330 330 329 328 326 327 330 331 330 330 329 328 328 328 329
320 321 319 326 330 325 321 319 320 318 316 315 313 314 314 312 313 311 312 312 312 310 309 310 310 310 306 305 305 304 305 305 304 304 304 305 305 304 305 305 304 304 304 304 304 304 304 304 304 304 304 305 305 305 305 306 306 307 307 308 309 310 311 312 314 316 318 319 321 322 323 324 325 325 325 326 327 327 329 329 329 328 329 329 329 329 328 327 328 329 330 330 331 329 328 328 328
320 319 320 331 332 324 322 321 321 318 315 315 312 313 313 312 312 310 311 312 311 309 309 310 309 306 305 304 305 304 304 304 305 305 304 304 303 304 304 304 304 304 304 304 304 304 304 304 304 304 304 304 304 304 305 305 305 305 305 306 306 306 307 308 309 311 312 314 315 316 317 318 319 319 320 321 323 324 325 326 327 327 327 327 328 329 329 329 327 328 329 329 330 330 328 327 327
319 321 332 339 331 325 325 322 319 318 319 319 314 313 313 313 313 310 311 312 310 309 309 310 308 306 305 303 304 304 304 304 305 304 303 303 303 303 303 304 304 304 304 304 304 304 304 304 304 304 304 304 304 304 304 305 305 305 305 305 305 305 306 306 306 307 308 309 310 312 313 314 315 315 315 316 317 318 318 319 321 323 324 324 325 326 327 329 328 328 329 327 328 330 329 328 327
318 322 339 333 323 325 323 320 319 320 320 318 314 312 314 312 312 310 310 310 309 309 309 310 309 308 305 303 304 304 304 305 305 304 303 303 303 303 303 303 304 304 304 304 304 304 304 304 303 303 303 303 304 304 304 304 304 305 305 305 306 306 306 306 306 306 306 306 307 308 309 310 312 313 314 314 314 315 315 315 316 316 317 317 318 319 320 323 326 327 328 326 324 327 330 329 327
317 319 333 327 319 323 320 319 319 320 318 316 314 312 313 311 311 310 310 311 308 308 309 309 309 308 305 302 303 303 304 304 303 303 303 303 303 303 303 303 304 304 304 304 304 304 303 303 303 303 302 302 302 302 302 302 302 303 303 304 304 305 305 306 306 306 306 306 306 306 306 307 308 309 311 313 314 315 315 315 315 315 314 314 314 314 314 315 318 323 327 328 324 323 328 330 328
317 317 331 331 323 321 318 319 320 322 318 316 315 311 312 310 310 310 310 312 309 307 308 308 308 309 308 304 304 303 304 303 302 302 302 302 303 303 303 303 304 304 304 303 303 303 303 302 302 302 302 302 301 301 301 301 301 301 301 301 301 302 303 303 304 305 305 305 305 305 305 305 305 306 307 308 310 313 315 315 315 315 315 315 315 314 314 313 313 316 322 327 327 324 325 327 328
318 319 336 335 324 320 317 317 320 323 317 313 313 312 312 309 309 310 309 310 309 307 308 308 307 308 308 307 306 304 303 302 302 302 302 302 302 303 303 303 303 303 303 303 302 302 302 302 301 301 301 301 301 301 301 301 301 301 301 300 300 301 300 301 301 302 303 303 304 304 304 304 304 305 305 305 306 308 310 313 315 316 316 315 315 315 314 314 313 313 316 322 326 326 326 325 326
317 325 341 336 323 319 316 318 320 322 318 313 311 312 314 310 308 309 309 309 308 307 307 307 307 308 307 306 305 303 303 302 301 301 301 302 302 303 303 303 303 303 303 302 302 301 301 301 301 301 301 301 301 301 301 301 301 301 301 301 300 300 300 300 300 300 300 300 301 302 302 303 303 304 304 304 304 304 305 307 310 314 316 317 316 316 316 316 314 313 313 317 322 325 327 327 327
321 334 339 327 321 317 317 320 317 317 318 313 311 311 313 312 308 307 308 306 306 306 305 306 306 306 305 305 304 303 302 301 301 301 302 303 303 303 303 303 303 302 302 301 301 300 300 300 300 300 300 300 300 300 300 300 300 300 300 300 300 300 300 300 300 300 299 299 299 299 300 300 301 301 302 302 302 303 303 303 304 307 311 315 317 317 317 317 316 315 313 313 317 321 324 327 327
322 334 332 326 326 317 314 316 313 313 315 312 311 311 312 313 308 308 309 304 303 305 302 302 304 303 303 303 302 302 301 301 301 302 303 303 303 303 303 302 302 301 301 300 300 300 300 299 300 299 299 299 299 299 299 299 299 299 299 299 300 300 300 299 299 299 299 299 299 299 298 298 298 299 299 300 300 301 301 302 302 302 304 307 312 315 317 318 319 318 317 314 314 317 319 322 326
318 326 328 327 324 315 311 313 312 314 314 312 310 310 311 311 309 309 308 303 303 304 302 301 301 301 301 301 301 301 301 301 301 302 303 303 303 302 302 301 301 301 300 299 299 299 299 299 299 299 299 299 298 298 298 298 298 298 298 298 298 298 298 298 298 298 298 298 298 298 298 298 298 298 298 298 298 299 299 300 301 301 301 302 304 309 313 317 319 320 320 319 316 316 316 319 323
314 320 326 321 314 313 314 313 313 313 314 313 311 310 310 310 310 308 306 307 306 303 304 306 304 302 301 300 300 301 301 301 301 302 302 302 302 301 300 300 300 299 299 298 298 298 298 298 298 298 297 297 297 297 297 297 298 297 297 297 297 297 297 297 297 297 297 297 297 297 297 298 297 298 298 298 298 298 298 299 299 300 300 301 301 302 306 310 315 319 321 321 320 320 318 317 320
314 314 317 315 311 314 314 312 314 313 313 313 310 311 311 309 309 308 308 311 310 306 307 308 307 306 303 301 300 300 300 301 301 301 301 301 300 299 298 298 298 298 298 298 297 297 297 296 296 296 296 296 296 296 296 297 297 297 297 297 297 297 297 296 296 296 296 296 296 297 297 297 297 297 297 297 298 298 298 298 298 299 299 299 300 300 301 303 307 313 318 320 321 323 322 320 320
316 313 311 312 312 314 314 313 313 313 312 312 310 311 310 308 308 308 308 310 309 309 308 307 306 304 302 301 300 300 300 301 301 301 300 299 298 298 297 297 298 297 297 297 297 296 296 296 295 295 295 295 295 296 296 296 296 296 296 296 296 296 296 296 296 296 296 296 296 296 296 296 297 297 297 297 297 297 298 298 298 298 298 298 298 298 299 300 301 304 310 316 319 322 323 323 322
316 315 311 312 312 313 314 313 313 312 312 311 311 311 309 309 310 307 306 307 307 308 308 306 304 302 301 301 300 300 301 301 300 299 299 298 298 297 297 297 297 297 297 297 296 296 296 295 295 295 295 295 295 295 295 296 296 296 296 296 296 295 296 295 296 296 295 296 296 296 296 296 296 296 296 297 297 297 297 297 298 297 297 297 297 297 297 298 298 299 302 307 313 318 321 323 324
316 316 312 312 312 313 313 312 312 312 311 311 311 310 309 309 309 306 304 305 306 306 306 304 302 301 300 301 300 300 300 300 299 299 298 298 297 297 297 297 297 296 296 296 296 295 295 294 294 294 294 294 294 295 295 295 295 295 295 295 295 295 295 295 295 295 295 295 295 295 295 295 295 296 296 296 296 297 297 297 297 297 297 297 297 297 297 297 297 297 298 300 305 310 315 319 323
313 315 312 311 312 311 312 311 311 311 311 311 311 310 308 307 308 306 303 303 304 304 304 303 301 301 300 301 300 300 300 299 298 298 297 296 296 296 296 296 296 296 295 295 295 294 294 294 294 294 294 294 294 294 295 295 295 295 295 295 295 295 295 295 295 295 295 295 295 295 295 295 295 295 295 295 296 296 296 296 296 297 297 297 297 297 296 296 296 296 296 297 299 302 308 313 318
313 313 312 311 312 311 311 311 311 311 311 311 312 312 307 305 309 309 302 301 303 303 302 301 301 301 300 300 300 299 299 298 298 297 296 296 295 295 295 295 295 295 294 294 295 294 295 294 294 294 294 294 294 294 294 294 294 294 294 294 294 294 294 294 294 294 295 295 294 295 295 295 295 295 295 295 295 295 295 295 295 296 296 297 297 296 296 296 296 295 295 296 296 298 301 306 311
312 312 313 313 311 311 311 310 310 311 311 311 312 311 305 304 310 311 303 300 302 302 301 300 300 300 300 300 299 298 297 296 296 296 296 296 295 295 295 295 294 294 295 294 295 294 295 294 294 294 294 294 294 294 294 294 294 294 294 294 294 294 294 294 294 294 294 294 294 294 294 294 294 295 294 294 294 294 294 294 294 294 294 295 295 296 296 295 295 295 294 294 295 295 297 300 303
312 311 315 315 314 315 311 309 310 310 311 310 311 312 309 308 309 309 304 301 301 301 300 299 299 299 299 298 297 296 296 295 295 295 295 295 295 295 295 295 294 294 295 294 294 294 294 294 294 294 294 294 293 293 293 293 293 294 294 294 294 294 294 294 294 294 294 294 294 294 294 294 294 294 294 295 294 295 295 295 294 294 293 293 294 294 295 295 295 295 295 294 294 295 295 297 298
313 310 312 318 319 320 311 308 310 309 311 310 310 314 316 314 308 305 304 301 300 300 299 299 298 298 297 296 295 295 295 295 295 295 295 295 294 295 295 295 294 294 294 294 294 294 294 294 294 294 293 293 293 293 293 293 294 294 294 294 294 294 294 294 294 294 294 294 294 294 294 294 294 294 295 295 295 295 295 295 295 294 293 293 293 293 293 294 294 294 295 294 294 294 295 295 296
315 310 317 321 317 324 317 308 310 311 311 310 310 314 315 316 309 303 303 301 301 300 298 298 298 298 297 296 295 295 295 295 295 295 294 294 295 295 294 294 293 294 294 294 294 294 294 293 293 293 293 293 292 293 293 293 294 294 295 295 294 294 294 294 293 294 294 294 294 294 294 294 294 294 294 295 295 295 295 295 294 294 293 292 292 292 293 293 293 294 294 294 294 294 295 295 295
320 313 324 325 315 324 322 307 308 312 312 310 311 315 315 315 308 303 302 301 301 300 298 298 298 298 297 296 295 295 295 294 294 295 295 295 295 294 293 293 293 294 294 294 294 294 293 293 293 293 292 292 292 293 293 293 294 295 295 295 294 293 293 293 293 293 293 293 293 294 294 294 294 294 294 294 295 295 294 294 294 293 293 292 292 292 292 293 293 293 294 294 295 294 295 295 295
328 317 321 326 317 318 319 309 307 309 311 311 311 315 316 313 305 301 301 300 300 299 298 298 298 298 298 296 295 295 295 294 294 294 295 295 294 293 293 293 293 294 294 293 293 293 293 293 293 293 292 292 292 293 293 294 295 295 295 294 293 293 293 293 293 293 293 293 293 293 293 294 294 294 294 294 294 294 294 293 293 293 292 291 292 292 292 293 293 293 293 294 295 295 296 296 295
330 322 319 323 319 314 315 314 309 307 310 312 312 312 313 312 303 299 300 299 299 299 298 298 298 298 298 297 296 295 295 295 295 295 295 294 294 293 293 293 294 294 294 293 293 293 293 293 292 292 292 292 292 293 293 294 295 295 294 293 293 293 293 293 293 293 293 293 293 293 293 293 293 293 293 293 293 293 293 293 292 292 291 291 291 292 292 292 293 293 293 293 294 295 296 296 295
320 320 318 317 316 312 313 314 310 309 312 313 313 313 312 311 305 300 300 299 299 299 299 298 298 298 298 297 296 295 295 295 296 295 294 294 294 293 294 294 294 294 293 293 293 293 292 292 292 292 292 292 292 293 293 294 294 294 294 293 293 293 293 292 292 292 292 292 292 292 292 292 292 292 292 292 292 292 292 292 292 291 290 289 290 291 291 292 292 293 293 293 294 295 297 296 294
314 315 315 314 314 312 311 312 309 308 312 312 311 312 311 311 309 302 300 300 299 299 299 298 297 297 297 297 296 296 295 296 296 295 294 294 294 294 294 294 294 293 293 293 292 292 292 292 292 292 292 292 292 293 293 293 294 294 293 293 293 293 292 292 292 292 292 292 292 292 292 291 291 291 291 291 291 291 291 291 291 290 289 289 289 289 290 291 291 292 293 294 295 296 296 295 294
311 312 313 312 312 311 309 311 309 306 310 313 311 311 311 310 311 305 300 300 299 298 299 298 298 297 297 297 296 296 296 296 296 294 294 294 294 294 294 294 293 292 292 292 292 291 291 292 292 292 292 292 292 292 292 293 293 292 292 292 292 292 292 292 292 291 291 291 291 291 291 291 290 291 291 291 290 290 291 291 291 290 289 288 288 288 289 289 290 292 293 295 296 297 295 293 295
310 312 313 312 312 311 309 310 309 305 308 313 311 311 310 310 310 306 301 300 299 299 299 298 298 297 297 297 297 296 296 296 295 294 294 294 294 294 294 293 292 292 292 291 291 291 291 292 292 292 292 292 292 292 291 291 291 291 291 291 291 291 291 291 291 291 291 290 290 290 290 290 290 290 290 290 291 291 291 291 291 290 289 288 287 287 288 289 289 291 292 293 295 296 294 294 295
312 312 313 314 313 313 312 311 309 306 308 312 312 310 309 309 309 305 301 300 300 300 300 300 299 298 297 297 297 297 296 295 295 294 294 294 294 294 293 293 292 291 291 291 291 291 292 292 292 292 291 291 291 291 291 291 291 291 290 290 290 290 290 290 290 290 290 290 290 290 290 290 290 290 290 290 290 290 290 290 291 290 289 287 286 286 287 288 289 289 290 292 294 294 295 294 295
313 313 313 315 313 313 316 314 311 310 309 311 311 308 307 307 308 307 303 301 302 301 301 301 300 299 298 298 298 297 296 296 295 294 294 294 294 293 293 292 291 291 291 291 291 292 292 292 292 291 291 291 290 290 290 290 290 290 290 290 290 290 290 290 290 290 290 290 290 290 290 289 289 289 289 289 289 289 289 288 289 289 288 287 285 285 285 287 288 288 289 291 293 294 295 296 295
317 315 313 315 314 313 314 313 311 311 312 311 308 308 310 309 308 308 305 301 301 301 300 300 300 299 298 298 298 297 296 296 296 295 294 294 294 293 293 292 291 291 291 291 291 291 291 291 291 291 291 290 290 290 290 290 290 290 290 290 290 290 290 290 290 290 290 290 290 290 290 289 289 288 288 289 289 289 288 287 287 287 287 287 285 284 284 285 286 287 288 290 292 294 295 296 296
321 319 315 314 315 314 313 312 310 312 316 312 308 312 318 314 309 309 306 303 302 300 299 299 299 299 298 297 297 296 296 297 296 296 294 294 293 293 293 292 291 291 291 291 291 291 291 291 291 291 290 290 290 290 289 289 290 289 289 289 289 289 289 290 289 289 289 289 289 289 289 288 288 288 288 289 289 289 288 287 287 287 286 286 285 284 284 284 285 286 287 288 291 293 295 296 297
319 318 315 315 314 312 312 310 310 315 316 310 308 312 315 312 311 311 309 307 304 301 299 299 299 298 297 297 297 296 296 296 296 295 294 294 293 293 293 292 291 291 291 291 291 291 291 291 291 290 290 290 289 289 289 289 289 289 289 289 289 289 289 289 289 289 289 289 289 289 289 288 288 288 288 288 288 288 288 287 287 286 286 286 284 283 283 283 284 285 286 287 289 292 294 295 296
321 314 312 315 312 311 311 308 309 312 311 308 308 309 309 309 310 309 308 309 307 303 301 299 298 298 298 297 297 296 297 297 296 295 294 294 293 293 293 292 291 291 291 291 291 291 291 290 290 290 290 289 289 289 289 289 289 288 289 288 289 288 288 289 288 288 288 288 288 288 288 288 288 288 287 288 288 288 287 287 287 286 285 285 284 282 283 283 283 285 286 287 288 290 293 294 295
320 310 308 310 308 309 308 306 308 309 307 309 309 307 309 311 310 307 304 306 308 306 304 301 297 297 298 297 296 296 297 297 296 295 294 294 293 293 293 292 292 291 291 291 290 290 290 290 290 290 289 289 289 289 289 289 288 288 288 288 288 288 288 288 288 288 288 288 288 288 288 288 288 287 287 288 288 288 287 286 286 286 285 284 283 282 282 283 283 284 285 286 287 289 292 294 294
311 307 309 311 310 310 308 307 309 309 308 311 310 308 311 316 314 309 305 306 308 307 305 302 299 297 297 297 296 296 296 296 296 295 294 294 293 293 293 292 291 291 290 290 290 290 290 290 290 290 289 289 288 288 289 288 288 288 288 288 288 288 288 287 287 287 287 287 287 287 287 287 287 287 287 287 288 288 287 286 285 286 285 283 282 282 282 283 283 283 284 285 287 289 291 294 295
305 309 314 315 313 311 309 309 309 311 313 315 312 309 311 315 315 312 312 313 312 310 308 305 300 297 297 297 296 296 296 296 295 295 294 294 293 293 292 292 291 290 290 290 290 290 290 289 289 289 289 288 288 288 288 288 288 288 287 287 287 287 287 287 287 287 287 286 286 286 286 286 286 286 287 287 288 287 286 285 285 285 285 283 282 282 282 282 283 283 284 285 287 288 290 292 294
306 314 315 316 317 314 313 312 310 313 320 317 309 306 309 312 314 313 313 311 308 309 312 310 304 298 297 297 296 296 296 296 295 294 294 293 293 293 292 292 291 290 290 290 290 289 289 289 289 289 288 288 288 288 288 288 288 287 287 287 287 287 287 286 286 286 285 285 285 285 285 285 285 286 286 287 288 287 286 285 284 284 284 283 282 282 281 282 282 283 284 285 286 287 289 291 294
310 314 316 318 320 321 320 317 314 317 319 311 303 305 309 310 312 311 310 309 305 304 305 307 304 298 297 297 297 296 295 295 295 294 294 293 293 293 292 292 291 290 290 289 289 289 288 288 288 288 288 288 288 288 288 288 288 287 287 287 287 286 286 286 285 285 285 284 284 284 284 284 285 285 286 287 288 288 286 285 284 283 283 283 282 281 281 281 281 282 283 284 286 287 288 290 293
309 312 318 321 321 324 325 321 318 318 318 307 300 305 311 310 311 310 309 310 306 302 301 301 301 299 299 299 297 296 295 295 295 294 294 293 293 293 292 291 290 290 290 289 289 288 288 288 288 288 288 287 288 287 288 288 287 287 287 286 286 286 286 285 284 284 284 283 283 283 283 284 284 285 286 287 287 287 287 285 283 282 282 281 281 280 280 280 280 281 282 283 285 287 288 290 293
308 311 316 319 322 324 325 324 322 320 318 309 303 308 315 314 313 310 306 302 299 299 299 299 299 299 301 300 297 295 294 295 295 294 294 293 293 293 292 291 290 290 289 289 289 288 288 288 287 287 288 287 288 287 288 288 287 287 287 286 286 285 285 285 284 283 283 282 282 282 283 283 284 285 286 287 287 287 286 284 282 281 281 280 279 279 279 279 280 280 281 282 285 287 287 289 292
307 308 312 315 319 321 319 319 317 314 313 310 306 310 313 310 309 307 301 296 295 296 295 295 297 298 299 298 296 294 294 294 294 294 294 293 293 292 291 291 290 289 289 289 289 288 288 288 287 287 287 287 288 288 288 287 287 287 286 286 286 285 285 284 283 283 282 281 282 282 283 284 284 285 286 287 287 286 285 283 282 281 280 279 278 278 278 279 279 279 280 281 284 286 287 288 292
309 308 313 312 310 314 317 315 310 307 311 313 311 311 310 310 310 306 302 299 298 297 294 293 294 296 297 296 295 294 294 294 294 294 293 293 293 292 291 291 290 289 289 289 288 288 287 287 287 287 288 288 288 288 287 287 287 286 286 286 285 285 284 283 283 283 282 281 282 282 283 284 285 285 286 286 286 286 284 281 281 280 279 278 278 278 278 279 279 279 280 281 284 286 286 288 291
312 313 312 307 305 309 314 315 311 308 312 314 312 311 311 314 313 305 302 301 301 300 296 293 292 293 294 294 294 294 294 294 294 294 293 293 292 292 291 291 290 289 289 289 288 288 287 287 287 287 288 288 288 287 287 287 286 286 286 285 285 284 283 283 282 282 282 281 281 282 283 284 285 285 285 285 285 285 283 281 280 280 279 278 278 278 277 278 278 278 280 281 283 285 286 288 290
307 309 305 306 310 312 311 312 314 314 314 314 315 313 313 315 315 311 307 305 305 303 296 292 293 292 292 293 293 293 293 293 293 293 293 292 292 292 291 291 290 289 289 288 288 287 287 287 287 288 288 288 287 287 287 287 286 286 285 285 284 284 283 282 282 281 281 281 281 283 284 284 285 285 284 284 283 282 281 280 279 279 278 277 277 277 277 277 277 278 280 281 282 284 285 287 290
300 302 301 304 310 312 311 311 313 316 316 315 317 316 315 316 318 318 314 309 308 305 296 293 294 292 292 293 293 293 293 293 293 293 293 292 292 292 291 291 290 289 289 288 287 287 287 287 288 288 288 288 287 287 287 286 286 285 285 285 284 284 283 282 281 281 281 281 282 283 284 284 284 284 283 281 280 280 278 277 276 276 277 276 276 276 276 276 277 278 279 281 282 283 284 286 289
304 304 304 303 304 307 310 308 309 313 315 314 315 315 316 315 316 318 315 311 309 306 299 294 293 292 293 293 293 293 293 293 293 293 292 292 292 292 291 290 289 289 288 288 287 287 287 288 288 288 288 287 287 287 286 286 286 285 285 284 284 283 283 282 281 281 281 281 282 283 284 283 283 283 281 279 278 278 276 276 275 274 275 275 275 275 275 275 276 277 279 280 281 283 284 285 288
308 307 307 306 305 307 310 309 308 309 311 313 315 315 314 312 313 314 314 312 309 304 298 295 293 292 293 293 293 293 293 293 293 293 293 292 292 292 291 290 289 288 288 287 287 287 288 288 288 288 287 287 287 287 286 286 285 285 285 284 284 283 283 282 281 281 281 281 283 284 283 283 282 282 280 278 278 278 275 275 275 273 273 273 273 274 275 275 276 277 279 280 281 282 283 285 287
Wind_Speed
4 4 4 3 2 1 2 3 1 3 4 3 2 1 1 1 2 2 1 1 1 6 16 18 15 17 15 16 18 19 17 8 3 4 4 1 5 4 3 3 2 2 3 2 2 3 3 2 4 2 1 0 0 1 2 4 5 4 2 2 3 3 4 6 8 9 9 9 10 11 11 12 13 14 15 16 16 16 17 18 17 16 15 15 14 13 13 14 14 16 17 18 19 19 19 19 20
4 2 4 4 1 2 2 1 1 3 5 3 2 2 2 2 2 4 5 2 7 14 26 30 28 25 22 21 18 19 19 14 12 11 8 4 2 3 5 3 2 3 4 4 4 5 5 3 1 4 4 3 3 3 3 4 6 6 5 4 4 4 4 5 6 8 9 10 10 11 13 13 13 14 15 16 17 17 17 18 18 18 18 17 16 15 14 13 12 13 15 17 19 20 20 19 19
4 3 4 4 2 2 2 2 1 2 4 2 3 3 1 2 4 6 6 7 18 24 24 23 21 15 13 16 13 11 9 11 13 9 8 4 2 5 6 4 3 3 4 5 6 7 7 5 3 3 5 6 6 6 6 6 7 7 7 6 6 5 6 7 7 8 8 9 10 12 13 14 14 15 15 16 17 17 17 18 19 19 20 19 18 17 16 15 14 13 14 15 17 18 19 19 18
3 3 3 4 4 2 2 3 2 4 3 3 2 4 2 4 6 7 2 8 17 20 16 15 13 11 14 13 8 10 10 11 10 5 7 7 5 6 5 4 4 3 5 5 6 7 6 6 4 3 4 6 7 8 8 8 9 9 9 9 8 7 7 7 8 9 9 10 10 11 13 14 15 16 16 16 17 18 17 17 18 19 20 20 19 18 18 18 17 17 16 14 15 16 17 18 18
3 3 2 4 3 1 3 3 2 4 2 4 2 4 4 6 7 4 5 8 12 15 14 14 8 9 18 14 5 5 5 7 8 8 10 8 6 5 3 3 4 5 5 5 5 5 5 6 5 4 3 4 6 8 9 9 10 10 11 11 11 10 9 8 8 9 10 11 11 11 12 13 15 16 17 17 18 18 17 17 17 19 20 20 21 20 20 19 19 19 19 16 16 16 18 18 18
3 3 2 4 3 2 3 2 3 1 4 5 4 4 4 6 7 7 12 13 14 16 16 15 13 14 17 15 14 8 5 7 8 9 11 8 4 2 2 3 5 6 6 6 7 6 7 6 7 6 6 5 5 6 7 8 9 10 11 11 12 13 13 11 10 11 11 11 12 12 12 13 14 15 17 17 17 18 18 19 18 19 20 21 22 23 22 21 20 20 20 19 18 18 19 19 20
3 4 3 5 3 3 3 3 4 1 2 4 3 5 5 7 10 13 11 10 13 13 15 20 24 21 10 6 13 12 10 10 10 10 9 7 4 1 1 2 4 4 5 7 8 9 8 8 7 8 8 8 7 7 7 7 8 8 9 10 12 13 15 15 14 14 14 13 13 13 14 15 15 15 16 17 18 18 18 19 19 19 19 20 21 23 24 23 22 22 22 21 20 20 21 21 21
3 3 3 4 2 4 4 3 3 2 1 3 2 4 3 6 13 10 4 4 6 8 17 23 20 13 5 7 8 11 13 11 11 11 9 8 5 3 3 3 3 5 8 9 10 11 10 10 10 9 9 9 9 9 9 8 8 8 8 9 10 11 13 15 16 16 16 16 16 16 17 17 18 18 18 18 18 19 19 19 19 20 20 20 21 23 24 24 25 24 24 23 22 23 23 23 23
3 2 2 3 2 3 3 2 1 2 2 2 1 1 0 6 11 7 5 5 8 10 15 12 5 7 10 14 13 12 13 12 11 10 9 7 5 5 4 4 6 8 10 10 12 12 12 13 13 12 12 11 11 11 11 10 10 9 8 8 8 9 11 13 15 17 18 18 18 19 19 20 20 20 21 21 21 20 20 20 20 21 21 21 22 23 25 25 25 26 27 25 24 24 24 25 25
1 1 2 3 3 4 3 0 1 1 2 2 1 1 1 6 8 10 9 8 10 12 9 5 6 16 17 14 12 13 13 12 11 10 9 7 6 7 6 7 8 9 9 10 11 11 12 13 13 13 13 13 12 12 12 11 11 11 10 10 9 9 9 10 12 15 17 18 19 20 21 22 22 23 23 24 23 22 22 22 23 22 22 22 23 24 25 26 26 27 28 27 25 25 25 26 26
0 2 3 4 4 3 3 3 2 2 3 4 2 0 3 9 13 12 12 11 9 13 13 9 14 22 18 9 10 13 13 12 11 10 9 9 9 8 7 8 8 8 8 9 10 10 11 11 11 12 12 12 11 11 11 11 11 11 11 11 11 11 10 10 10 11 14 16 19 21 22 23 23 24 25 25 26 26 25 25 25 25 25 24 25 25 25 26 27 28 28 28 28 27 26 26 27
1 1 3 4 3 3 4 4 4 3 5 3 0 3 6 11 13 10 12 12 11 14 9 5 15 21 12 5 10 13 14 12 10 10 10 10 9 8 8 8 7 7 8 9 8 8 10 10 10 11 11 12 11 11 11 11 11 11 11 11 11 12 12 11 11 12 12 13 15 18 20 22 24 25 26 26 27 28 28 27 27 27 27 27 27 27 27 27 28 28 28 28 29 29 28 28 28
1 2 5 3 2 3 5 5 4 1 4 2 3 4 6 6 10 15 16 12 10 8 1 8 22 17 6 6 13 15 15 12 11 10 10 9 8 8 7 7 6 6 7 7 7 8 9 10 11 11 12 12 12 12 13 12 13 13 12 12 12 12 13 13 13 13 14 14 15 15 17 19 21 23 25 27 27 28 28 29 29 29 29 29 29 30 30 30 30 29 28 28 30 31 30 29 29
2 2 4 3 1 3 5 3 3 3 1 4 3 4 7 4 8 17 18 11 4 5 7 17 22 11 8 10 11 18 16 12 12 11 11 9 8 7 6 5 5 4 5 5 6 8 9 11 11 12 12 13 13 13 14 14 14 14 14 14 14 14 14 15 15 15 16 16 16 16 17 17 18 20 22 24 27 29 29 29 30 31 31 31 31 31 32 32 33 32 30 29 29 31 31 31 31
3 2 4 4 3 1 3 2 3 5 4 3 2 6 10 7 6 11 12 8 4 11 16 18 16 5 10 14 12 22 18 13 14 11 11 9 8 7 5 4 3 3 4 5 6 7 9 11 11 12 12 13 14 14 15 15 15 14 15 15 15 16 16 17 17 18 18 18 18 18 18 19 19 19 20 21 23 26 28 30 31 31 32 32 33 33 33 34 34 34 33 31 30 31 31 32 33
4 3 4 3 2 1 2 2 3 4 4 2 7 12 10 6 6 6 5 9 11 15 14 13 11 5 13 19 17 24 20 15 15 12 12 10 9 7 5 4 3 3 5 6 7 8 9 11 11 12 12 13 14 15 16 15 16 15 15 15 15 15 16 17 18 19 20 21 21 21 21 21 21 21 21 22 22 23 25 27 30 31 31 32 32 34 34 34 35 34 35 34 33 32 33 34 35
3 3 5 3 2 3 3 4 4 4 4 3 9 10 6 3 5 7 6 13 16 13 10 8 9 8 16 20 19 24 20 17 16 13 13 10 8 6 4 3 2 3 5 6 8 10 10 11 12 13 13 14 15 15 16 16 16 16 16 16 16 16 16 16 17 18 19 21 22 23 24 24 24 24 24 24 24 24 24 25 26 28 30 31 31 32 33 34 35 35 36 36 35 34 35 36 36
2 3 4 2 3 3 4 7 7 5 4 6 8 9 9 6 7 13 10 11 16 13 10 9 10 14 19 20 21 23 19 18 16 13 13 10 8 6 3 1 2 2 5 7 8 10 11 12 13 15 16 17 17 17 17 17 17 17 17 17 17 17 17 17 17 18 19 20 21 22 23 25 26 27 27 27 27 27 27 26 26 26 28 30 31 31 31 33 34 35 35 36 37 36 36 37 37
3 3 4 2 5 4 3 7 9 5 6 7 8 12 12 10 15 18 8 6 13 12 10 12 17 19 20 22 23 21 19 18 15 14 13 10 7 4 2 1 3 3 6 7 9 11 12 14 16 17 18 19 19 19 20 19 19 19 19 19 18 18 18 18 18 18 19 19 20 21 22 24 25 27 28 29 29 29 29 28 28 28 27 28 29 31 32 31 31 33 33 34 36 38 38 38 38
1 4 3 5 6 3 2 6 8 5 8 8 10 12 10 14 19 16 11 9 7 8 13 15 18 24 24 24 23 21 20 16 14 13 11 8 6 3 2 1 3 4 7 9 11 13 14 16 18 19 19 20 20 20 21 20 21 20 20 20 20 19 19 19 19 19 20 20 21 21 22 23 24 26 27 28 30 32 32 31 31 30 30 29 29 30 32 33 32 32 32 32 33 36 39 39 39
0 3 3 6 5 3 4 6 6 6 9 9 11 10 8 17 18 15 17 10 4 12 23 20 21 29 28 25 23 20 18 15 14 11 9 7 5 4 3 3 4 6 8 10 12 14 16 17 18 19 19 19 20 20 20 21 21 21 20 20 20 20 21 21 21 21 21 22 22 23 24 24 25 25 26 27 28 31 33 34 35 34 33 32 32 32 32 32 33 33 32 32 31 32 35 37 38
1 1 3 7 8 4 6 9 6 8 10 9 11 9 11 18 14 18 23 11 5 16 26 22 22 30 28 27 24 19 18 15 13 10 9 7 5 5 5 5 6 7 8 11 13 15 16 16 17 17 17 18 18 18 19 20 20 21 21 21 21 21 22 22 22 23 23 23 24 24 25 25 26 27 27 27 28 29 31 33 35 37 37 36 34 34 34 33 33 34 34 33 32 31 32 34 37
2 2 1 7 7 4 8 11 8 10 11 11 11 8 12 15 8 19 25 11 6 12 22 21 22 27 27 26 23 20 18 15 13 10 9 7 6 6 6 5 6 7 9 11 13 14 15 15 16 16 16 17 17 18 18 19 20 20 21 21 22 22 22 23 24 25 25 26 27 28 28 28 28 28 28 28 29 29 31 31 32 34 37 39 37 36 36 36 35 34 34 35 35 33 33 34 35
1 1 0 4 4 4 9 11 10 11 11 11 11 8 12 13 7 15 19 11 6 9 18 22 25 28 25 24 22 20 18 15 14 11 9 8 6 5 5 4 5 7 8 11 11 13 13 14 15 15 16 16 17 17 18 19 20 21 21 21 22 23 24 24 26 26 27 28 29 31 32 33 33 33 32 31 30 30 30 31 33 33 34 37 38 39 38 37 37 36 36 36 37 37 36 35 35
2 1 1 3 2 4 8 9 10 11 8 9 9 7 9 11 9 11 12 9 8 14 20 25 28 28 25 24 22 19 18 15 14 11 10 8 6 5 4 3 4 6 8 9 11 12 13 14 15 15 16 17 18 18 19 20 21 21 22 23 23 24 25 26 27 28 29 30 31 32 34 36 36 37 36 35 34 33 31 31 32 34 35 36 37 38 39 39 38 38 38 37 37 38 39 38 36
1 2 4 1 1 2 7 10 11 10 8 8 7 3 3 8 7 5 9 12 15 20 24 29 29 28 25 23 21 19 18 16 14 12 10 8 6 5 3 3 4 6 7 9 11 12 13 15 15 16 17 18 19 20 21 22 22 23 23 24 24 25 26 27 29 30 31 32 33 34 35 37 38 39 39 39 38 37 36 34 33 33 35 37 37 37 37 39 40 39 38 38 38 39 40 40 39
4 4 7 6 5 4 6 11 12 11 8 8 6 3 2 9 5 3 12 18 22 26 28 29 28 27 25 23 22 19 17 16 14 13 11 9 7 4 3 3 4 5 7 9 11 13 14 15 16 17 18 19 20 21 22 22 23 24 25 26 26 27 28 29 30 31 32 33 35 36 37 38 39 40 41 41 41 41 41 40 38 35 34 35 38 39 37 37 39 40 39 38 39 40 42 42 41
6 7 8 8 8 7 6 8 12 11 5 6 5 1 1 5 3 6 18 25 27 30 30 29 28 27 25 23 22 20 18 16 14 13 11 9 7 4 3 3 3 5 7 9 11 13 14 16 17 18 19 20 21 22 23 23 25 26 27 28 28 29 30 31 32 33 33 34 35 36 37 39 40 41 41 42 42 43 44 44 42 39 37 35 35 39 39 38 38 39 40 39 39 39 42 43 43
6 5 6 7 9 7 5 3 9 8 4 7 5 2 2 5 5 8 22 30 29 30 30 29 28 27 26 24 23 21 19 17 15 13 11 8 5 3 1 1 3 5 7 10 12 13 15 17 18 19 20 20 21 23 24 25 27 28 29 30 30 31 32 32 33 34 35 35 36 36 37 38 39 40 41 42 43 44 45 46 45 42 40 37 36 37 38 39 38 39 40 41 40 39 41 43 43
4 3 3 4 8 6 4 1 4 4 5 10 6 3 6 8 7 10 25 33 31 30 30 31 29 27 26 25 24 22 20 18 16 13 10 8 5 3 1 1 3 5 8 10 12 13 15 17 18 19 20 21 22 23 25 27 28 30 31 31 32 33 33 33 33 34 35 35 36 37 37 38 39 40 41 42 43 44 45 45 45 44 41 38 37 37 38 39 39 39 39 40 42 41 41 42 42
2 2 2 3 3 5 6 2 4 3 4 10 7 4 7 8 8 16 27 34 34 32 31 31 31 30 28 26 25 23 21 18 16 13 11 8 5 3 1 1 3 6 8 10 12 14 15 16 18 19 20 22 22 24 26 28 29 31 32 33 33 33 33 33 34 34 35 36 37 38 39 39 40 41 41 43 43 44 45 45 45 43 41 39 37 37 37 38 38 39 38 38 41 42 43 42 41
3 2 3 3 0 5 9 4 6 4 2 7 7 4 8 7 8 21 30 33 35 32 31 32 32 32 30 27 26 23 21 19 16 14 12 9 6 3 0 2 4 7 8 10 12 13 15 16 18 20 21 22 23 25 26 28 30 32 33 33 32 32 33 34 35 36 36 37 38 39 40 41 41 42 42 43 45 45 46 46 45 44 42 39 38 36 36 37 37 38 38 37 39 42 43 44 42
3 1 2 4 2 4 7 4 4 4 0 3 5 5 7 5 5 21 30 33 33 28 28 32 33 34 32 29 27 25 23 21 19 16 14 11 8 4 1 3 5 7 9 10 12 13 15 17 18 20 21 22 24 25 27 29 31 33 33 32 32 32 33 35 36 37 37 38 38 39 40 41 42 44 44 45 45 46 46 46 45 44 43 41 39 37 36 37 37 38 39 38 38 41 43 45 44
4 2 1 4 4 3 5 5 4 1 1 4 3 5 10 5 5 19 28 32 31 27 28 32 33 34 33 31 29 27 26 24 22 19 16 13 10 6 4 4 6 8 9 10 12 14 15 17 18 20 21 23 25 26 29 31 32 33 32 32 32 33 34 35 36 37 38 39 39 40 41 42 44 44 46 46 46 47 47 46 45 42 41 41 40 39 37 37 37 38 39 39 38 39 42 45 45
3 3 2 4 3 4 5 6 4 1 1 5 3 6 14 8 6 17 27 31 31 29 29 31 32 33 34 33 32 30 28 27 24 20 17 15 12 9 7 6 7 8 9 11 12 14 15 16 18 20 22 24 26 28 30 32 33 34 34 34 34 34 35 36 37 38 39 39 40 41 42 43 45 46 47 47 47 47 47 47 45 42 39 39 39 38 38 37 37 37 38 39 39 39 41 44 45
5 5 4 4 5 6 6 6 5 1 3 8 7 9 13 12 6 13 24 29 30 28 25 26 29 32 34 34 34 33 31 29 25 21 18 16 15 12 9 8 8 9 10 11 12 13 14 16 18 20 23 25 27 30 31 33 35 36 36 36 36 36 36 37 37 37 38 39 39 41 42 44 46 47 49 49 48 47 47 48 47 44 40 38 37 37 37 37 37 37 37 38 40 41 41 42 42
4 3 4 5 5 7 6 5 5 1 2 8 9 9 12 14 11 11 22 26 24 23 22 25 30 33 36 37 36 35 33 30 24 22 21 18 17 14 11 10 9 9 10 11 11 13 15 17 20 22 24 26 29 31 33 34 36 37 37 38 39 38 37 37 37 37 38 39 40 41 43 45 46 48 49 49 49 48 48 48 48 45 41 38 37 37 37 36 35 36 36 37 39 42 44 41 39
2 3 4 5 5 8 9 4 5 1 3 7 6 7 10 13 13 10 17 18 20 27 27 29 33 35 37 38 38 37 33 29 26 25 24 20 19 16 12 10 8 9 9 11 12 13 15 18 20 22 25 27 29 30 31 33 34 35 37 37 38 38 38 39 39 39 40 41 41 43 44 46 47 48 49 49 49 49 48 48 47 45 41 39 37 38 38 37 35 34 34 37 39 42 44 41 37
2 2 1 5 3 4 8 4 5 2 2 6 7 7 9 12 16 10 15 18 24 36 39 37 39 38 39 39 39 39 34 31 30 30 27 22 20 17 14 11 8 9 9 11 12 14 16 18 21 23 25 26 28 29 30 31 33 34 35 36 37 39 39 39 40 40 41 42 42 43 44 46 47 48 49 49 49 49 48 47 46 44 41 40 39 39 40 38 36 34 33 36 39 41 43 41 37
3 3 2 5 3 1 4 4 5 3 2 6 9 9 7 9 17 13 16 25 28 35 40 39 39 39 41 43 43 43 39 36 34 32 29 24 21 19 16 12 9 9 9 11 13 15 17 19 21 23 24 26 27 28 29 31 32 33 34 35 36 38 39 39 41 41 41 43 43 43 44 46 48 49 49 50 50 49 47 45 44 44 42 40 39 39 39 38 36 34 33 34 36 40 42 42 39
3 5 6 6 5 5 6 3 5 5 4 4 7 10 6 6 14 13 7 16 22 26 30 32 36 37 37 39 42 43 42 39 36 33 31 27 23 21 17 12 9 9 9 11 14 16 18 19 21 23 24 25 26 28 29 31 33 34 35 37 37 38 39 40 42 44 44 45 45 45 45 47 48 50 50 50 50 49 47 44 43 44 43 41 39 37 37 36 35 35 33 32 33 37 40 43 41
5 5 9 9 8 7 6 5 6 5 4 3 5 6 7 2 7 11 3 4 12 16 18 26 34 34 33 38 41 43 42 40 37 33 31 28 24 22 17 12 9 9 10 12 14 16 18 19 20 22 23 25 26 27 29 31 33 35 37 39 40 41 42 42 43 45 47 47 48 47 47 47 48 50 50 50 50 49 47 45 44 43 42 42 40 37 35 35 37 37 34 32 32 33 37 41 43
3 4 6 7 5 3 4 3 3 2 3 3 3 1 9 3 4 11 6 5 11 10 11 21 29 31 36 42 43 43 43 41 38 32 30 29 25 22 17 12 9 9 10 12 14 16 17 19 20 22 24 25 26 27 28 31 33 34 36 38 39 41 43 44 44 45 46 47 48 48 48 48 48 50 51 50 50 49 47 45 44 43 42 41 40 37 36 38 39 38 35 33 32 32 34 40 43
3 4 4 5 3 2 3 1 1 3 3 4 3 4 8 7 6 10 6 7 12 11 12 16 23 31 39 43 42 43 45 44 39 34 31 29 25 21 16 11 9 9 10 11 13 15 17 18 20 22 24 25 26 27 28 31 33 34 35 37 38 40 42 44 45 45 46 46 48 48 49 49 49 50 51 51 51 50 48 46 44 44 43 40 40 39 39 39 40 39 37 34 33 32 33 37 42
5 4 5 5 4 3 2 2 3 2 3 7 5 7 5 9 5 3 2 5 12 14 16 15 20 31 39 41 41 42 45 44 40 36 32 29 25 20 15 11 10 9 10 11 13 15 17 19 20 21 23 24 25 27 29 30 32 34 35 37 39 39 41 43 44 46 46 47 48 49 49 50 51 50 51 51 52 51 49 47 45 45 44 41 41 41 41 39 39 40 38 35 34 33 32 34 39
3 5 5 5 5 4 3 2 1 2 1 9 7 7 4 8 4 2 2 3 10 14 14 13 19 31 36 36 38 41 43 43 40 37 33 29 25 20 15 12 10 9 9 11 13 15 17 19 20 21 22 24 25 27 29 30 31 33 35 37 38 40 41 43 44 45 46 47 49 50 50 51 52 52 52 52 52 52 51 49 47 45 45 43 41 42 42 41 39 39 39 37 35 34 34 35 37
4 5 4 5 5 4 4 2 3 3 3 10 9 10 7 6 3 5 4 6 9 9 9 9 14 24 31 33 37 41 43 43 41 36 32 28 24 20 16 12 9 9 9 11 13 15 17 18 19 21 22 24 26 27 29 30 31 33 35 37 38 39 41 43 45 46 46 48 49 50 51 52 53 53 53 53 53 53 52 50 49 46 45 44 42 42 43 42 40 39 41 39 36 35 35 36 37
5 4 4 4 4 3 4 4 4 1 6 7 5 8 9 8 6 5 6 8 8 7 9 9 10 19 28 33 39 43 44 44 41 37 33 29 25 22 17 12 10 9 9 11 12 14 16 18 19 21 22 24 26 28 29 31 32 34 35 36 37 38 40 42 44 46 47 48 49 51 52 53 54 54 54 54 53 54 53 51 50 49 46 44 43 41 40 40 39 39 40 39 38 36 35 35 37
5 4 4 3 4 4 3 3 0 3 7 3 1 3 6 11 10 9 11 14 12 10 12 12 10 17 27 34 39 42 43 44 42 39 35 31 28 23 17 12 10 9 9 10 12 13 15 17 19 21 22 24 26 28 30 31 33 34 35 36 36 38 39 41 43 45 46 47 49 51 52 53 54 55 54 54 54 54 54 53 51 51 48 45 43 40 39 39 37 36 37 38 38 37 35 35 36
5 4 4 3 1 1 4 4 3 5 6 2 3 3 4 8 8 12 17 19 16 13 17 20 15 16 25 33 39 40 42 44 43 40 36 33 28 22 16 13 10 9 9 10 11 13 16 17 19 21 22 24 26 28 30 32 34 34 35 35 36 37 39 40 42 44 45 47 48 49 51 52 53 55 55 54 54 54 54 53 52 52 49 46 43 41 38 38 35 33 34 37 39 38 35 35 36
4 4 5 4 4 3 4 4 4 7 6 3 2 2 4 4 3 8 12 13 12 12 18 20 18 18 22 28 34 37 41 43 43 41 37 33 28 21 16 13 11 10 9 10 11 13 16 18 19 21 22 24 27 29 31 33 34 35 35 36 36 37 38 40 42 43 45 46 47 49 50 51 52 53 54 54 54 54 54 53 51 51 49 46 45 42 39 38 35 33 34 38 39 38 36 35 34
2 3 4 3 4 5 3 3 4 2 6 5 3 3 6 4 4 5 5 6 8 10 13 12 15 18 20 25 32 36 40 42 43 41 37 32 26 21 17 13 11 10 10 10 12 14 16 18 19 21 23 24 27 29 31 33 34 35 35 36 37 37 38 40 42 44 45 45 46 48 50 51 52 52 53 53 54 54 54 53 52 51 49 46 45 43 40 38 35 34 37 39 39 37 36 35 33
2 3 3 4 4 5 2 3 1 4 3 6 3 6 7 4 6 6 4 4 7 7 8 8 13 17 21 27 33 36 40 43 44 42 37 32 26 21 17 14 11 11 11 11 12 14 16 18 19 21 23 25 27 30 32 33 34 35 36 36 37 38 39 40 42 44 45 46 47 47 49 51 52 52 52 53 54 54 54 52 51 50 48 45 43 42 38 35 35 37 40 40 39 38 37 35 33
5 3 5 3 2 3 3 1 3 2 4 6 3 8 10 5 6 3 3 3 10 10 7 6 10 16 22 28 32 36 40 43 44 40 35 31 26 22 18 14 12 11 11 11 12 13 15 17 19 21 24 26 28 30 32 33 35 36 36 36 37 38 39 41 42 44 46 47 47 48 49 51 52 51 52 52 52 53 53 51 50 49 47 45 42 41 38 35 36 40 41 40 38 37 37 37 34
5 3 2 3 3 1 2 2 3 2 4 7 6 9 12 8 6 5 3 8 12 11 7 7 9 15 21 26 30 34 37 41 42 39 35 31 27 22 18 14 13 12 11 11 12 13 15 17 19 21 24 27 29 31 33 34 35 36 36 37 38 39 40 41 43 44 45 46 47 48 49 50 51 51 51 52 51 52 52 51 51 49 47 44 42 40 38 36 37 40 41 39 38 37 36 37 34
2 0 1 1 3 4 3 3 3 3 3 8 7 9 13 9 6 7 9 11 12 11 9 9 12 18 25 28 30 35 39 42 43 40 36 32 27 22 18 15 13 12 11 11 12 13 15 16 19 21 24 26 28 31 33 34 35 36 37 37 38 40 41 43 44 45 46 46 47 48 49 50 51 50 50 50 50 51 50 50 50 49 47 45 41 38 36 35 36 38 38 37 37 37 36 36 34
3 2 2 2 2 1 1 2 2 3 4 6 4 7 16 10 6 8 10 10 12 12 11 10 14 22 27 29 33 37 41 43 43 41 36 31 26 22 18 15 13 12 10 11 12 13 14 17 19 22 24 26 29 31 33 34 35 36 37 38 39 41 42 44 45 45 46 46 47 48 49 50 50 50 48 47 48 49 50 50 50 48 47 43 39 36 33 33 35 36 37 37 37 37 36 34 32
7 7 7 8 6 3 2 4 4 3 5 5 2 5 17 10 5 6 8 8 10 11 11 11 15 24 28 31 35 39 41 44 43 40 35 30 26 21 18 16 13 11 10 11 12 13 15 17 20 22 24 26 29 31 33 34 35 36 37 39 40 42 43 45 46 46 47 47 48 49 50 50 51 50 47 46 48 49 49 50 48 45 45 42 37 35 30 29 34 35 36 37 37 37 35 33 30
Wind_Direction
59 89 128 148 199 203 222 201 116 7 67 92 338 54 208 220 176 142 130 281 51 53 75 85 86 93 98 101 105 85 59 53 68 81 132 125 34 352 343 10 353 337 318 323 307 304 324 95 131 141 133 307 205 236 260 258 254 252 251 255 287 301 318 321 316 315 315 315 309 303 301 301 304 304 304 309 310 311 312 313 316 316 316 313 308 298 283 270 265 265 266 267 266 266 263 263 265
45 80 139 141 192 223 225 202 82 357 56 85 283 160 245 329 102 160 192 167 114 100 88 86 84 86 96 98 91 72 53 51 72 86 103 118 87 11 4 11 338 323 316 312 304 305 313 323 188 191 204 226 229 242 253 253 251 252 249 251 262 262 267 277 287 293 299 306 307 302 297 293 293 295 297 301 304 304 305 307 309 308 310 310 309 309 301 289 279 273 270 269 270 269 269 266 265
39 88 148 162 133 159 179 33 86 67 74 130 256 256 276 118 167 199 197 112 114 113 97 89 80 70 83 80 55 58 63 60 74 88 81 84 103 26 13 2 342 321 304 303 313 318 319 322 298 234 221 228 233 239 246 251 254 254 249 253 265 270 270 267 269 273 280 290 296 298 298 296 291 289 290 292 294 294 297 302 304 303 304 305 305 306 305 301 294 285 276 272 272 271 271 271 269
64 92 118 168 139 118 82 46 132 115 113 181 236 266 239 164 195 212 165 89 126 128 110 97 73 56 71 73 54 68 73 59 63 94 78 61 66 39 19 3 338 302 297 305 322 327 329 332 318 282 244 240 241 245 249 254 258 260 258 255 259 264 270 274 271 267 271 276 278 283 289 293 290 288 286 287 287 285 287 292 298 299 299 300 299 299 298 299 298 293 286 277 273 271 270 271 273
94 108 104 172 162 129 94 76 112 100 172 185 141 253 251 191 202 208 68 78 142 149 129 110 92 79 72 61 48 66 72 75 78 96 90 75 71 49 19 351 316 299 314 333 343 342 346 347 341 325 291 263 252 255 256 260 263 264 266 263 262 260 261 268 265 264 271 275 274 271 274 283 286 285 283 283 284 281 280 283 287 290 292 293 294 294 292 292 293 293 291 286 277 272 270 269 271
116 133 108 140 142 130 118 106 123 101 215 167 136 231 236 207 194 128 88 83 115 133 129 113 117 107 81 67 60 65 106 109 106 99 95 92 83 50 336 315 302 304 333 357 0 1 4 0 354 348 337 321 296 280 271 269 269 268 269 268 266 264 263 263 261 263 266 268 271 269 265 273 278 279 280 281 281 280 279 280 281 282 285 288 291 290 289 289 288 288 287 287 281 273 270 268 267
139 151 116 123 96 65 110 127 154 169 190 165 157 186 205 214 173 131 103 90 98 111 119 116 117 105 86 98 66 69 112 123 117 105 103 104 102 94 349 323 306 328 16 22 22 24 23 19 13 8 0 353 343 331 316 301 290 282 277 274 271 268 266 266 266 267 268 267 267 267 264 269 272 274 278 279 279 280 279 279 280 279 279 283 286 285 285 285 285 284 283 282 281 276 270 267 267
146 168 140 127 44 34 95 108 168 179 159 208 189 175 202 196 169 144 113 119 109 108 123 122 112 89 75 135 99 89 113 120 115 112 113 113 111 95 69 51 33 52 59 55 53 50 48 45 43 39 32 26 16 8 358 347 333 318 302 290 281 274 269 267 268 269 270 271 271 271 270 270 272 272 274 275 278 279 278 278 280 279 277 277 279 280 281 281 281 281 280 278 278 277 273 268 266
130 160 151 107 70 52 66 62 152 210 260 260 188 214 159 172 173 139 93 99 121 127 137 143 96 95 112 108 109 114 117 120 121 120 119 120 120 104 95 83 70 74 73 69 69 64 63 59 56 55 51 47 40 35 26 19 11 360 346 328 311 295 282 273 269 269 270 271 272 273 272 272 272 272 273 274 274 275 275 276 277 277 277 277 276 276 277 277 277 278 277 275 273 273 272 270 267
122 104 143 89 81 72 62 64 249 219 257 281 272 252 99 159 152 122 118 110 126 126 136 162 114 125 124 107 117 128 128 134 137 134 132 133 127 118 108 95 86 85 81 74 71 67 66 62 59 57 53 50 46 42 36 32 27 20 14 4 354 338 320 301 285 276 273 272 273 273 272 272 272 272 273 273 272 273 273 273 273 273 273 274 274 274 275 275 274 274 276 274 271 270 269 270 269
214 45 111 82 78 114 161 193 243 250 280 306 296 119 117 139 118 103 118 119 131 124 122 121 116 124 118 108 133 140 143 150 158 149 138 132 123 119 108 99 95 87 81 73 68 65 62 57 54 49 46 43 39 37 32 28 25 21 16 10 6 359 351 339 322 306 291 282 278 275 274 273 272 272 272 272 271 271 271 270 270 270 270 270 270 271 272 272 272 273 275 275 272 270 268 268 268
255 9 78 88 118 167 179 164 198 256 312 331 94 101 126 138 116 112 123 121 139 135 130 137 140 133 109 111 146 153 160 165 170 154 139 131 122 113 107 101 95 86 77 70 64 59 53 48 43 38 33 28 24 21 17 14 11 8 5 0 357 352 349 345 339 331 320 309 297 288 282 278 275 273 272 272 271 270 269 268 267 268 268 268 268 268 269 269 270 271 273 274 273 271 268 267 267
112 155 82 97 148 145 141 143 185 245 330 266 167 106 123 141 121 135 132 118 143 150 189 165 152 139 106 142 152 164 171 172 168 154 147 133 125 116 110 103 91 85 73 65 55 47 40 34 30 26 22 17 13 8 3 359 356 352 349 344 341 337 334 330 328 326 323 320 314 308 300 292 286 280 276 273 272 271 269 268 267 266 266 266 266 266 267 268 269 269 269 270 271 270 268 268 266
84 161 94 111 84 119 138 135 182 144 220 235 191 116 117 112 121 138 132 114 125 125 131 151 152 134 129 143 157 174 172 169 165 154 152 135 132 125 115 110 93 86 67 54 44 38 31 25 20 16 12 8 5 1 357 352 348 343 338 333 329 324 320 317 314 313 311 310 309 308 306 302 298 292 286 280 275 273 271 270 268 266 265 265 265 264 264 265 267 267 266 267 268 267 266 267 268
88 117 92 106 46 78 158 149 161 139 182 227 139 133 113 93 128 142 126 124 129 129 139 154 158 147 166 169 178 178 168 164 162 150 149 139 141 137 132 131 99 83 58 44 36 30 26 19 13 9 4 1 358 355 352 348 344 339 334 329 324 319 314 311 307 305 302 301 300 299 298 297 296 294 293 288 283 278 274 272 270 268 267 265 265 264 263 262 262 263 263 264 264 264 263 264 267
90 103 78 82 70 126 172 152 123 128 205 203 131 136 109 81 140 139 112 140 138 142 156 170 182 222 188 177 172 171 165 161 160 149 149 144 149 150 147 134 93 75 48 36 29 22 20 13 7 5 360 357 354 352 350 347 344 339 337 331 325 320 313 309 304 301 298 297 295 294 294 292 292 290 290 289 287 285 280 276 272 271 269 268 267 265 264 262 261 259 259 261 261 262 262 262 263
99 93 64 72 122 156 176 167 161 162 221 182 148 151 116 79 128 121 128 143 136 146 164 175 197 192 172 167 159 162 162 161 159 152 157 160 166 169 163 139 91 67 38 28 23 17 13 8 4 2 357 356 353 352 350 346 346 341 339 335 332 327 321 316 309 305 300 298 296 293 293 291 291 290 290 289 287 287 285 283 278 275 272 270 268 266 265 263 262 259 256 256 258 260 261 262 261
96 104 79 117 159 166 175 181 189 161 168 173 172 174 147 145 150 135 126 122 123 129 135 138 156 156 157 156 154 160 161 163 164 168 180 188 193 196 189 137 59 47 31 25 18 13 9 6 4 2 359 358 356 354 352 349 347 343 341 338 335 333 329 326 320 317 312 308 304 300 298 296 295 293 292 292 290 289 287 286 284 281 278 274 271 268 266 264 263 262 259 254 254 256 259 260 261
89 103 89 188 195 193 195 180 183 155 158 161 154 174 173 173 163 151 141 123 126 117 113 127 137 143 151 154 156 162 163 167 172 186 200 201 202 204 183 79 45 32 23 19 12 9 7 6 4 2 0 360 358 355 353 351 349 346 345 342 339 337 335 333 329 327 323 320 316 312 308 305 303 300 298 297 295 293 290 288 286 285 282 279 275 272 269 268 266 265 263 258 253 253 256 258 260
117 96 84 234 209 196 239 180 179 172 172 156 142 168 187 176 167 162 157 157 160 153 151 149 149 151 154 157 160 164 165 169 174 187 199 193 191 185 157 108 53 31 21 14 11 9 7 7 5 3 0 359 356 354 352 350 350 348 345 343 342 341 340 338 336 335 332 330 326 322 318 314 311 307 304 302 300 297 294 291 288 286 284 282 281 277 272 270 268 266 264 261 257 253 253 256 259
152 117 147 210 173 156 199 177 176 171 172 171 153 149 168 176 177 170 153 148 244 211 185 181 177 167 161 163 164 167 167 168 172 181 187 182 178 162 132 91 59 36 26 17 13 11 9 8 5 3 360 357 355 353 352 350 348 346 344 344 344 343 343 342 341 340 339 337 334 331 327 324 319 315 311 306 303 301 298 296 293 291 288 285 284 282 279 274 271 269 266 263 261 258 255 254 258
16 98 164 168 150 155 187 171 171 174 173 177 164 148 163 175 187 182 168 165 233 217 201 193 186 175 167 166 165 165 167 170 174 178 179 172 157 134 97 77 55 36 28 19 15 13 11 8 4 2 358 355 354 352 351 348 346 344 343 343 342 342 342 342 342 341 340 340 339 336 332 330 326 323 319 315 310 305 301 298 296 295 293 291 288 285 283 281 277 273 271 268 266 264 261 258 259
359 342 125 163 166 173 181 176 179 181 176 176 176 172 163 162 190 192 185 201 253 225 203 185 178 174 167 165 163 165 169 174 175 172 169 155 138 119 86 72 48 36 27 19 17 13 9 5 1 358 355 353 352 349 347 345 344 344 343 342 341 341 341 340 340 340 341 342 341 340 337 335 332 329 325 321 317 311 306 302 298 295 294 294 293 290 286 284 283 279 274 271 269 267 266 264 263
53 315 113 165 197 190 180 183 186 187 183 182 183 182 172 167 179 189 197 233 256 212 190 176 170 167 165 164 164 168 172 174 173 165 160 151 138 121 94 74 47 36 26 19 14 9 6 3 360 356 354 352 350 348 346 345 345 344 344 343 342 342 341 341 340 340 341 341 342 341 340 339 336 333 330 327 322 316 310 305 301 297 295 293 293 293 291 287 284 282 279 274 271 270 268 266 267
73 275 286 142 183 195 190 191 188 187 181 179 179 188 192 183 174 177 199 222 196 182 174 168 167 165 168 170 169 172 172 171 170 165 162 157 143 128 106 78 54 34 23 17 11 8 6 2 1 357 355 353 351 349 346 345 344 344 344 343 343 342 341 341 340 340 340 341 341 341 341 339 338 335 333 330 326 321 316 308 301 297 295 293 291 291 293 292 287 283 281 278 274 272 270 268 267
301 261 314 317 193 176 195 196 186 178 172 166 170 230 227 170 165 174 185 181 173 172 168 166 168 169 171 174 176 177 176 173 171 169 163 155 146 139 116 80 52 34 22 15 11 8 6 1 359 356 354 352 350 347 345 344 343 343 343 342 341 340 340 340 340 340 341 341 341 341 341 339 337 335 333 331 327 324 320 315 308 300 293 291 290 289 290 291 291 287 283 280 278 274 270 269 267
309 296 312 295 292 299 209 200 192 177 171 176 175 256 225 156 167 224 178 169 168 166 164 168 172 173 174 177 178 178 178 175 172 171 165 159 151 142 118 78 44 33 20 12 10 5 1 357 355 354 352 349 347 345 344 344 344 343 343 342 342 341 341 340 339 339 339 339 339 339 339 338 336 335 333 331 328 324 321 318 315 308 298 290 287 287 288 288 289 289 287 283 280 277 272 269 268
318 323 314 295 316 311 235 201 194 180 174 193 171 117 129 156 220 227 179 169 170 169 166 171 176 177 177 178 178 176 176 173 172 173 171 170 160 144 115 70 37 22 11 7 5 0 357 354 353 351 349 347 345 344 344 344 345 345 345 344 343 342 340 338 337 337 337 338 338 338 338 337 336 335 333 330 327 323 320 317 315 312 307 298 289 286 286 286 285 285 287 287 283 279 276 272 270
324 356 327 303 348 334 261 209 192 185 180 179 146 8 256 208 240 209 179 172 171 172 170 173 177 178 178 177 176 174 174 173 173 177 177 174 167 157 142 52 20 6 3 2 0 357 355 353 350 349 347 346 345 345 346 347 347 347 345 343 341 339 337 336 335 336 336 336 336 335 335 334 334 333 331 328 326 322 319 317 314 311 308 304 297 292 289 287 285 282 283 286 286 282 278 274 272
327 20 16 322 355 336 292 17 178 180 183 171 144 295 252 226 226 182 176 175 171 174 175 176 178 178 177 176 176 176 176 178 177 179 181 177 177 181 188 353 4 1 360 358 356 355 352 350 348 346 346 346 347 348 347 346 345 344 341 339 338 336 334 334 334 334 333 333 332 331 331 331 331 331 329 327 326 323 320 317 313 309 305 303 299 297 294 291 288 284 283 284 286 286 282 277 275
348 351 31 13 356 292 303 355 156 156 201 181 161 267 253 247 230 183 180 181 176 178 180 180 181 180 180 179 179 180 180 183 183 182 185 186 194 204 226 1 7 359 356 354 351 351 350 348 346 345 346 346 348 347 346 344 342 340 338 336 334 333 333 332 332 332 332 331 331 330 329 328 328 328 327 326 325 324 322 319 314 308 303 300 297 296 295 294 291 288 286 286 285 287 286 282 279
24 355 320 345 11 275 306 309 183 182 220 180 169 255 267 270 229 189 184 185 182 184 186 186 187 185 185 183 183 184 184 185 187 189 196 201 207 213 226 359 355 350 348 348 347 349 348 346 344 344 345 346 346 345 343 340 338 335 333 332 332 332 332 331 331 332 332 332 331 329 328 326 326 326 326 327 326 326 325 321 316 310 303 297 294 293 293 293 293 289 287 288 287 286 288 287 283
6 46 258 279 267 296 317 316 233 217 216 200 195 245 270 296 210 186 184 187 187 189 191 191 192 191 189 189 188 188 188 189 191 197 205 209 212 217 251 324 336 340 341 343 345 347 346 344 343 344 345 344 343 341 338 336 333 331 330 331 332 332 331 331 332 332 332 332 330 329 328 327 328 328 329 330 329 327 326 322 317 311 302 295 291 289 288 289 291 290 286 286 288 287 288 289 287
325 10 257 250 239 266 298 309 313 27 158 243 228 241 256 271 157 181 187 189 192 195 197 196 196 195 194 194 193 193 194 197 200 204 208 211 214 225 255 300 316 326 333 337 341 343 343 342 342 343 341 339 339 338 336 334 332 331 331 332 332 332 331 332 332 332 331 330 330 330 330 330 329 330 331 331 330 329 327 324 319 313 303 292 286 285 285 285 285 286 286 285 286 286 286 288 290
239 271 274 285 263 232 247 274 304 41 249 251 230 253 262 265 175 187 194 192 197 203 203 201 199 198 198 198 198 199 201 205 209 209 209 211 217 230 252 279 298 313 324 329 337 341 341 341 342 341 339 338 338 337 335 333 332 332 331 331 331 332 331 331 331 330 330 330 330 331 331 331 331 331 333 333 333 331 329 326 322 317 307 292 283 282 282 283 283 283 283 284 284 283 284 285 289
200 224 217 254 273 259 234 237 266 283 274 263 240 247 264 268 232 197 199 198 203 210 208 206 205 202 201 201 203 203 205 210 211 209 210 214 221 233 249 267 290 306 318 327 335 340 340 341 341 340 339 339 338 336 334 334 332 331 331 331 331 330 330 328 328 328 329 329 330 332 332 333 333 334 335 335 335 333 330 327 323 318 311 297 284 280 281 283 284 284 282 284 285 283 282 283 286
174 197 219 237 242 272 262 239 281 279 229 263 243 238 262 265 259 217 201 200 205 213 212 211 209 206 205 205 206 207 209 212 210 208 212 216 223 234 247 262 287 306 318 329 336 340 340 341 340 339 339 338 337 335 336 336 335 333 333 332 331 330 329 328 328 330 330 331 333 334 334 334 334 334 334 334 334 333 330 327 322 318 312 301 286 276 277 280 282 284 285 285 284 282 281 282 283
157 198 247 270 221 257 276 271 298 290 185 267 254 242 259 260 264 233 192 193 208 210 210 213 211 210 210 208 208 209 210 209 206 208 211 215 223 233 246 259 285 305 319 328 333 338 339 339 339 339 338 337 336 336 336 336 335 334 332 331 329 329 330 329 330 332 332 333 334 334 334 334 334 333 332 332 331 330 329 326 322 317 313 306 292 278 274 275 277 281 286 286 282 280 280 280 281
140 158 222 282 236 262 291 302 326 9 176 269 277 260 259 262 268 243 187 197 214 213 212 214 212 210 211 211 210 210 208 205 204 208 210 214 222 230 240 254 281 301 318 326 329 335 337 338 339 338 337 336 336 336 335 335 333 331 329 327 327 327 328 329 329 331 331 332 333 333 333 332 331 330 330 330 330 329 328 326 322 317 313 309 300 287 277 273 275 279 284 286 283 281 279 277 277
169 162 188 266 266 286 283 301 335 333 235 269 288 277 261 260 268 257 203 207 219 220 219 220 217 215 214 214 213 211 207 204 204 207 210 213 219 226 234 248 275 300 316 323 327 333 336 339 338 337 336 335 335 334 333 332 329 327 326 325 325 325 326 327 327 328 329 329 330 331 331 331 330 330 330 330 330 329 327 324 320 315 311 308 302 293 283 276 277 280 283 286 284 281 278 275 275
241 197 201 243 260 233 235 286 336 319 297 304 317 298 269 234 254 266 221 212 226 226 222 224 224 222 220 218 217 214 210 208 208 207 208 210 216 222 230 242 270 298 313 322 328 332 336 339 337 335 334 333 333 333 331 329 327 325 324 323 323 323 323 325 325 325 327 329 330 330 331 331 330 329 329 329 329 328 326 322 317 312 309 306 303 295 285 280 280 279 279 283 283 278 275 275 273
297 231 209 227 246 248 261 321 352 339 325 342 16 323 280 238 249 265 264 209 235 227 220 224 224 222 220 220 219 215 213 213 214 212 208 210 215 220 227 240 268 295 312 324 329 332 335 336 335 333 332 332 332 331 330 328 327 326 326 326 326 326 326 328 329 328 328 329 329 330 330 330 329 327 327 328 327 326 324 321 315 311 308 304 301 295 284 278 278 276 273 278 280 277 275 274 271
304 251 199 205 220 248 278 340 6 291 269 285 71 315 274 284 250 259 244 221 242 230 223 229 224 219 218 220 220 215 212 213 214 213 209 210 214 218 225 241 266 294 313 324 327 329 332 332 333 331 330 331 330 330 329 327 327 326 326 327 327 328 327 327 328 328 328 328 327 328 328 328 327 326 326 326 326 325 323 320 315 310 307 303 300 295 284 276 275 274 272 274 276 275 274 272 269
243 236 134 123 127 164 209 129 240 246 281 280 176 167 269 272 245 263 251 234 256 247 235 235 225 220 221 222 220 215 214 213 211 209 207 210 214 218 226 243 265 293 313 321 325 326 327 329 332 331 329 329 328 328 328 327 327 326 326 325 325 326 326 325 325 325 327 327 326 327 326 325 325 325 325 326 325 325 322 320 316 310 306 302 298 294 287 279 275 273 272 271 273 272 270 269 269
241 208 115 97 104 132 148 117 261 292 7 292 231 149 258 274 240 294 343 233 258 256 241 235 223 221 223 222 220 216 215 213 211 209 208 211 215 220 228 244 266 292 309 316 320 322 325 328 329 329 327 326 327 327 327 326 326 325 325 325 324 325 325 324 324 324 325 326 325 325 325 324 324 324 324 325 324 323 321 318 315 311 306 301 296 292 289 283 276 273 272 270 271 268 264 266 269
208 141 92 59 63 68 61 67 298 29 15 268 249 154 221 275 212 154 22 235 247 253 247 237 225 224 224 221 218 216 214 212 211 211 213 216 218 222 230 242 264 287 302 311 316 319 323 325 326 327 325 325 326 326 325 325 325 325 325 324 324 324 324 324 323 323 324 325 324 324 325 324 324 324 324 324 324 322 320 316 313 311 307 301 296 291 289 285 278 273 270 268 268 266 263 262 266
130 93 51 25 30 44 39 48 70 46 266 259 240 176 191 275 240 176 199 218 222 235 249 244 228 224 223 219 217 215 213 211 209 211 214 216 218 221 229 241 258 281 297 306 313 318 321 323 323 325 325 325 325 326 326 325 326 326 325 325 325 325 324 324 323 324 325 325 324 324 324 324 323 324 323 323 323 321 318 315 311 309 306 301 296 291 287 285 279 272 267 265 265 265 265 263 262
103 74 50 14 342 11 16 0 47 58 252 263 242 184 193 240 246 215 229 238 225 222 241 240 222 218 216 216 217 215 212 210 208 209 210 211 214 218 226 237 252 273 291 302 310 316 320 321 322 324 325 325 326 326 326 326 326 326 325 324 325 325 324 324 324 324 325 325 325 325 324 324 323 323 323 322 322 320 317 314 311 309 306 302 297 293 288 284 279 273 267 264 264 262 264 264 260
93 89 76 44 335 354 344 305 43 230 244 254 124 159 223 242 244 245 252 256 244 227 236 242 228 215 212 213 216 214 211 209 207 208 208 210 213 218 224 234 247 268 285 296 307 314 318 319 320 323 325 326 327 326 326 326 326 326 325 325 324 324 323 323 324 324 325 325 325 324 324 324 323 322 322 322 321 319 315 313 310 308 306 302 298 294 289 284 279 274 267 263 262 260 262 263 258
148 146 126 131 111 358 285 266 268 272 264 241 117 126 262 271 257 232 233 248 253 243 243 249 246 228 220 218 216 213 210 208 207 208 209 211 214 217 223 231 244 264 279 291 305 312 315 318 320 323 326 327 327 326 326 326 326 326 326 325 324 324 323 324 324 324 325 324 324 324 324 324 323 321 322 321 320 318 314 312 309 306 306 303 299 294 289 284 278 273 268 263 259 257 260 263 258
174 155 134 152 151 177 243 241 253 288 300 263 152 143 236 254 270 222 226 256 274 266 255 253 250 240 232 223 215 211 208 207 207 208 210 212 213 216 221 230 243 259 274 288 302 311 313 316 320 324 327 328 327 326 326 326 326 326 325 325 324 325 324 324 324 324 324 324 324 323 323 323 321 320 320 319 318 316 313 311 308 306 305 303 299 295 289 283 276 270 269 264 257 256 260 262 259
194 127 114 181 180 172 216 228 213 301 320 278 200 217 228 227 270 238 227 280 285 274 267 252 237 230 222 215 210 208 207 205 205 208 209 210 211 214 221 229 243 258 272 286 300 309 312 315 321 326 327 328 327 326 327 326 326 325 325 325 325 325 325 324 324 324 324 324 324 323 322 321 320 320 319 319 318 316 313 310 308 305 304 302 298 294 288 280 273 268 266 263 256 254 259 260 258
164 138 181 215 174 136 158 272 338 68 300 274 232 258 276 309 282 232 177 272 274 273 273 236 218 213 206 208 208 206 205 204 204 207 207 207 208 213 221 231 244 258 272 285 301 308 311 316 322 326 327 326 327 326 327 326 325 325 325 326 326 326 326 325 325 324 324 324 323 323 322 320 319 320 319 318 317 315 312 308 306 304 303 301 297 294 289 278 270 266 264 262 256 252 256 257 256
128 177 217 190 119 99 114 266 332 56 255 269 255 266 279 293 282 279 95 260 259 252 247 223 210 205 204 209 208 205 205 203 204 206 206 206 209 215 221 232 246 258 271 285 300 306 312 319 323 326 326 326 327 327 326 326 325 326 327 327 327 327 327 326 325 325 324 324 324 323 322 320 320 321 320 318 316 314 311 308 307 306 304 302 297 294 289 278 270 266 263 262 256 253 256 256 255
127 185 223 125 148 182 111 162 240 210 246 270 278 283 276 247 242 278 238 221 240 242 221 204 209 208 210 211 207 204 203 201 202 203 204 206 209 215 223 234 246 257 271 286 299 306 313 320 322 325 326 327 328 327 326 327 327 327 328 328 327 327 327 326 326 326 325 325 325 324 322 321 321 321 321 319 316 314 310 308 309 308 306 303 298 294 289 280 272 267 265 262 256 254 256 256 255
87 118 351 64 179 180 161 171 193 182 231 270 293 308 287 253 201 231 233 211 223 230 208 201 211 212 211 208 203 202 200 200 202 202 203 206 209 216 225 235 245 256 271 286 297 306 314 319 321 324 326 327 327 327 327 328 328 328 328 328 328 327 327 327 326 326 326 325 325 324 323 323 322 322 322 319 315 313 309 307 308 307 305 304 299 295 289 281 273 268 265 261 255 253 253 255 255
167 203 223 224 188 142 227 213 167 183 229 260 282 292 281 270 168 199 223 207 216 219 204 204 215 216 213 208 204 202 201 201 202 202 203 205 210 217 225 234 243 254 270 287 298 308 314 318 322 324 327 327 327 327 328 329 329 329 329 329 329 328 327 327 327 327 326 326 325 325 325 324 323 322 321 317 314 312 307 305 306 303 302 303 299 296 291 283 276 268 263 259 254 253 252 254 256
178 195 199 201 189 158 250 253 216 198 230 237 181 269 275 273 145 192 212 197 217 214 197 203 215 215 213 210 208 205 202 202 202 202 203 206 211 218 225 233 241 253 271 286 297 308 314 318 324 326 328 328 328 329 330 330 330 330 330 330 329 329 328 328 327 327 327 327 327 328 327 326 324 323 321 316 314 314 307 304 307 304 303 304 301 299 295 286 279 271 264 258 253 253 253 252 254